NOAA 17 DEB

Satellite information

Favourite Embed

Satellite Type and Status

DEBRISIN ORBIT

Key statistics

Satellite NOAA 17 DEB at a glance.

Uptime

8475

Days in orbit

Revolutions

≈ 14.4

Per day

Orbit

SSO

Sun Synchronous Orbit

Inclination

98.9

Latest

Satellite identification and parameters

Extended collection of information and parameters for NOAA 17 DEB.

Object identification

Identified? True

Debris? True

Object name: NOAA 17 DEB

International designator: 2002-032AT

Object number (NORAD): 48710

Object ID (CCSDS): 48710

Country: UNITED STATES OF AMERICA (US)

Current information (Y/N): Y

RCS size: SMALL

Orbital parameters

Period: 100.013 minutes

Inclination: 98.8599 deg

SMA: 7137.246 km

Apoapsis: 761.281 km

Periapsis: 756.942 km

RAAN: 236.8825 deg

Eccentricy: 0.00030392

Argument of periapsis: 277.7898 deg

Mean anomaly: 82.2944 deg

Mean motion: 14.39815109 rev/day

Mean motion (dot): 0.00004119 rev/day2

B* drag term: 0.0013270352 1/REarth

Two-line elements (TLE)

Creation date: Sept. 6, 2025, 2:09 a.m.

Reference frame: TEME

Reference center: EARTH

Epoch: Sept. 5, 2025, 10:46 p.m. UTC

TLE line 0: 0 NOAA 17 DEB

TLE line 1: 1 48710U 02032AT 25248.94900245 .00004119 00000-0 13270-2 0 9991

TLE line 2: 2 48710 98.8599 236.8825 0003039 277.7898 82.2944 14.39815109234006

Live tracking on map

Real-time ground track for satellite NOAA 17 DEB.

In-orbit conjunctions

A list of the most updated potential collisions computed for object NOAA 17 DEB.

Target Orbit TCA Probability of collision Miss distance Type
NOAA 16 DEB SSO 2025-05-25 17:01:12 0.0001370522 85.0 (m) DEBRIS
COSMOS 1275 DEB LEO 2024-12-09 19:43:40 0.000153005 106.0 (m) DEBRIS

Associated space launch

NOAA M carried weather imagers and microwave and infrared sounders, as well as a SARSAT search-and-rescue package. It had an on-orbit mass of 1475 kg.

NOAA 17 DEB was lifted into orbit during the mission ‘Titan II SLV | NOAA 17’, on board a Titan II SLV space rocket.

The launch took place on June 24, 2002, 6:23 p.m. from Space Launch Complex 4W.

For more information about the launch, click the button.

Launch to space Titan II SLV | NOAA 17
Titan II SLV | NOAA 17

Agency: N/A

Status: Launch Successful

Launch date: June 24, 2002, 6:23 p.m. UTC

Rocket: Titan II SLV

Launch pad: Space Launch Complex 4W

Location: Vandenberg SFB, CA, USA

...

Latest news about this satellite

There are no fresh news available about this satellite. Check back as we update our databases every day.


Newsletter sign-up

Weekly statistics, charts and insights to help you stay on top of the space industry.